Simultaneous Nadir Overpasses (SNOs) Predictions

Prediction of SNOs between METOP-A and TERRA Satellite Orbit:

Table of predicted SNOs for the next 14.0 days since TLE Epoch: 5/18/2012
Index Date (METOP-A) Time (METOP-A) METOP-A Lat,Lon Date (TERRA) Time (TERRA) TERRA Lat,Lon Distance(km) Time Diff (sec)
1 05/20/2012 17:29:07 -81.30, 144.62 05/20/2012 17:29:32 -81.30, 144.64 0.67 25
2 05/20/2012 18:19:47 81.31, -47.66 05/20/2012 18:18:58 81.30, -47.64 0.79 49
3 05/23/2012 13:03:29 -81.30,-148.75 05/23/2012 13:03:45 -81.30,-148.76 0.17 16
4 05/23/2012 13:54:09 81.31, 18.92 05/23/2012 13:53:11 81.31, 18.94 0.38 58
5 05/26/2012 08:37:50 -81.31, -82.23 05/26/2012 08:37:57 -81.31, -82.28 0.85 7
6 05/26/2012 09:28:30 81.31, 85.39 05/26/2012 09:27:23 81.31, 85.40 0.20 67
7 05/29/2012 03:21:32
